KJ7AZ-3 Weather Reports


time (UTC)temp
C
wind
direction
speed
KPH
gust
KPH
rain 1hr
cm
rain 24hr
cm
rain mn
cm
humidity
%
barometer
mb
20260507211922 23 187 11.3 6.4 0.00 0.00 0.00
20260507210423 22 243 8.0 9.7 0.00 0.00 0.00
20260507204923 23 269 8.0 1.6 0.00 0.00 0.00
20260507201924 22 245 11.3 9.7 0.00 0.00 0.00
20260507200424 22 228 8.0 4.8 0.00 0.00 0.00
20260507194925 22 245 4.8 8.0 0.00 0.00 0.00
20260507193425 21 246 3.2 0.0 0.00 0.00 0.00
20260507190426 21 298 14.5 3.2 0.00 0.00 0.00
20260507184927 20 250 1.6 1.6 0.00 0.00 0.00
20260507183427 20 294 3.2 1.6 0.00 0.00 0.00
20260507181928 19 232 0.0 0.0 0.00 0.00 0.00
20260507180428 19 191 3.2 9.7 0.00 0.00 0.00
20260507174929 20 210 4.8 3.2 0.00 0.00 0.00
20260507173430 18 245 0.0 0.0 0.00 0.00 0.00
20260507171930 18 232 1.6 0.0 0.00 0.00 0.00
20260507170431 18 295 6.4 1.6 0.00 0.00 0.00
20260507164932 18 222 0.0 0.0 0.00 0.00 0.00
20260507163433 19 188 3.2 4.8 0.00 0.00 0.00
20260507161934 18 153 0.0 0.0 0.00 0.00 0.00
20260507160435 18 107 0.0 0.0 0.00 0.00 0.00
20260507154936 18 6 0.0 0.0 0.00 0.00 0.00
20260507151938 17 75 0.0 0.0 0.00 0.00 0.00
20260507150439 16 101 0.0 0.0 0.00 0.00 0.00
20260507144941 15 72 1.6 3.2 0.00 0.00 0.00
20260507143442 13 108 3.2 3.2 0.00 0.00 0.00
20260507141943 12 68 6.4 3.2 0.00 0.00 0.00
20260507140445 11 60 4.8 3.2 0.00 0.00 0.00
20260507134946 10 101 4.8 6.4 0.00 0.00 0.00
20260507133448 9 103 6.4 4.8 0.00 0.00 0.00
20260507131949 8 139 4.8 1.6 0.00 0.00 0.00
20260507130450 7 114 6.4 9.7 0.00 0.00 0.00
20260507124955 6 101 6.4 8.0 0.00 0.00 0.00
20260507123454 5 100 6.4 4.8 0.00 0.00 0.00
20260507120456 3 113 8.0 3.2 0.00 0.00 0.00
20260507114958 3 128 6.4 6.4 0.00 0.00 0.00
20260507112001 3 108 6.4 8.0 0.00 0.00 0.00
20260507110503 3 125 3.2 3.2 0.00 0.00 0.00
20260507105004 3 128 3.2 3.2 0.00 0.00 0.00
20260507103506 3 59 8.0 9.7 0.00 0.00 0.00
20260507102007 3 118 3.2 4.8 0.00 0.00 0.00
20260507100509 3 111 6.4 6.4 0.00 0.00 0.00
20260507095010 3 93 4.8 4.8 0.00 0.00 0.00
20260507093512 3 118 4.8 4.8 0.00 0.00 0.00
20260507092013 3 131 6.4 4.8 0.00 0.00 0.00
20260507090515 3 124 6.4 6.4 0.00 0.00 0.00
20260507085017 3 111 9.7 8.0 0.00 0.00 0.00
20260507083519 3 111 8.0 4.8 0.00 0.00 0.00
20260507082019 3 110 9.7 8.0 0.00 0.00 0.00
20260507075022 3 86 6.4 6.4 0.00 0.00 0.00
20260507073523 4 70 6.4 4.8 0.00 0.00 0.00
20260507072024 4 80 6.4 11.3 0.00 0.00 0.00
20260507070526 5 136 6.4 3.2 0.00 0.00 0.00
20260507065027 4 118 4.8 4.8 0.00 0.00 0.00
20260507063528 5 82 6.4 6.4 0.00 0.00 0.00
20260507062029 5 86 8.0 4.8 0.00 0.00 0.00
20260507060530 6 66 12.9 11.3 0.00 0.00 0.00
20260507055031 6 76 9.7 8.0 0.00 0.00 0.00
20260507053532 6 108 8.0 8.0 0.00 0.00 0.00
20260507043537 8 68 6.4 4.8 0.00 0.00 0.00
20260507042038 9 101 3.2 3.2 0.00 0.00 0.00
20260507040539 10 69 8.0 9.7 0.00 0.00 0.00
20260507035040 11 118 0.0 0.0 0.00 0.00 0.00
20260507033541 13 107 1.6 6.4 0.00 0.00 0.00
20260507030543 15 75 8.0 4.8 0.00 0.00 0.00
20260507025043 15 136 6.4 6.4 0.00 0.00 0.00
20260507023544 16 127 6.4 9.7 0.00 0.00 0.00
20260507022045 16 207 6.4 3.2 0.00 0.00 0.00
20260507020546 16 259 0.0 0.0 0.00 0.00 0.00
20260507015046 17 270 3.2 4.8 0.00 0.00 0.00
20260507013547 17 257 4.8 3.2 0.00 0.00 0.00
20260507012048 18 259 1.6 1.6 0.00 0.00 0.00
20260507010548 17 250 4.8 3.2 0.00 0.00 0.00
20260507005048 18 239 4.8 8.0 0.00 0.00 0.00
20260507002049 20 211 9.7 8.0 0.00 0.00 0.00
20260507000549 21 257 9.7 14.5 0.00 0.00 0.00
20260506235050 21 201 8.0 9.7 0.00 0.00 0.00
20260506233550 20 276 8.0 4.8 0.00 0.00 0.00
20260506232050 22 278 8.0 4.8 0.00 0.00 0.00
20260506230551 22 249 11.3 17.7 0.00 0.00 0.00
20260506225051 21 262 14.5 12.9 0.00 0.00 0.00
20260506223552 21 278 4.8 16.1 0.00 0.00 0.00
20260506222052 21 253 8.0 9.7 0.00 0.00 0.00
20260506215054 21 212 16.1 12.9 0.00 0.00 0.00
20260506213554 21 225 8.0 9.7 0.00 0.00 0.00